ZK-1A R/B, 61909

Orbit data source: Space-Track

ZK-1A R/B, 61909 is space debris in SSO originally from a launch on Mon, 11 Nov 2024 UTC launched from the Jiuquan Satellite Launch Center, China (JSC). Debris objects in space refer to the collection of defunct objects orbiting the Earth. Examples of debris include non-operational satellites, rocket bodies, and fragments generated from explosions, collisions, or faulty payload assembly.

Loading next visibility...
ZK-1A R/B details
Identifier
61909, 2024-205R
Orbit
SSO
Last TLE update20 hours ago
Origin
Flag of CNCASC (CN / PRC)
ManufacturerCAS
MissionSpacecraft
Bus & MotorUnknown
Mass500 kg wet, 500 kg dry
Launch date (UTC)
2024-11-11 (2 months ago)
Launch vehicleUnknown
Launch site
Jiuquan Satellite Launch Center, China (JSC)
Object type
Payload
Rocket body
Debris
Shape & HBRUnknown
Radar Cross SectionLarge (>1 m²)

Expand to show TLE details & history

TLE from 20 hours ago
0 ZK-1A R/B
1 61909U 24205R   25013.24439762  .00123446  61852-5  89524-3 0  9994
2 61909  97.4574  94.1001 0139079 161.5472 199.0904 15.61355107  9806
Epoch: 2025-01-13T05:51Z
Definitive object data (Epoch: 2025-01-13T05:51:55.954Z)
Latitude-0.00003°
Longitude-106.85126°
Altitude475.917 km
Speed7.577 km/s
True Right ascension06h 16m 24s
True Declination0° 00' 00"
Sunlit
Object was in full shadow at TLE epoch
Visualization TLE readout
Latitude38.87806°
Longitude-111.99107°
Altitude433.529 km
Speed7.63 km/s
Apparent Right ascension09h 56m 23s
Apparent Declination2° 25' 44"
Sunlit
Object is in full shadow
Visualization observer readout
Local Sidereal Time02:36:33
Azimuth75.016° E
Elevation-13.556°
Doppler factor1
Orbital elements
Apogee altitude474.655 km
Perigee altitude286.653 km
Semi-major axis6,758.791 km
Eccentricity0.0139079
Inclination97.4574°
RAAN94.1001°
Arg. of periapsis161.5472°
True anomaly198.57759°
Mean anomaly199.0904°
Eccentric anomaly198.83316°
Mean motion3.90607 °/min
BSTAR0.00089524
Orbital period92.16 mins
Loading maneuver chart data...
Loading historical data...
Loading historical data...
Loading historical data...
Loading historical data...
Loading historical data...
Loading historical data...
Loading historical data...

ZK-1A R/B Visibility forecast

Observer location: undefined°, undefined

Span
Click to sort rows by Start time (UTC) header in descending order
Start Az.
Max El. time (UTC)
Max El. Az.
Max El.
End time (UTC)
End Az.
6 mins2025-01-14 05:03:50.581Z152.927° SSE2025-01-14 05:06:50.581Z75.688° E39.172°2025-01-14 05:09:50.581Z357.828° N
|